Notices

What's New in latest Release from April 7th, 2021:

- Updated Glossary, including Speed of Maximum Gust, and Total Hourly Precipitation

- Updated national and regional climate services offices contacts and prices information

- Addition of station inventory lists for 1981-2010, 1971-2000, and 1961-1990 Normals.

Please note that as of June 10, 2021 UTC dates are available for all years 2004-present, and DBA is working on populating the remaining years (2003 to 1953).

If you haven't already, please take our survey and provide feedback about our website: https://eccc.sondage-survey.ca/f/LanguageSelection.aspx?s=442ca660-fcf1-47c0-95a9-59707d6fd709

Hourly Data Report for July 22, 2016

TORONTO CITY
ONTARIO

43°40'00.000" N
79°24'00.000" W
112.50 m
6158355
71508
XTO

Download Data

Hourly Data (July 2016)
Hourly Data Report for July 22, 2016
TIME
LST
Temp Definition
°C
Dew Point Definition
°C
Rel Hum Definition
%
Precip. Amount Definition
mm

Wind Dir Definition
10's deg

Wind Spd Definition
km/h
Visibility Definition
km
Stn Press Definition
kPa
Hmdx Definition


Wind Chill Definition


Weather Definition


00:00 24.5 18.9 71 0.0 LegendMM LegendMM   99.77 31   LegendNANA
01:00 24.2 18.9 72 0.0 LegendMM LegendMM   99.78 31   LegendNANA
02:00 24.1 18.7 72 0.0 LegendMM LegendMM   99.79 31   LegendNANA
03:00 23.1 18.0 73 0.0 LegendMM LegendMM   99.79 29   LegendNANA
04:00 22.7 17.9 74 0.0 LegendMM LegendMM   99.73 29   LegendNANA
05:00 22.3 18.2 78 0.0 LegendMM LegendMM   99.74 28   LegendNANA
06:00 23.2 18.9 77 0.0 LegendMM LegendMM   99.81 30   LegendNANA
07:00 25.1 19.8 73 0.0 LegendMM LegendMM   99.85 33   LegendNANA
08:00 27.3 20.4 66 0.0 LegendMM LegendMM   99.82 35   LegendNANA
09:00 29.1 20.4 60 0.0 LegendMM LegendMM   99.78 37   LegendNANA
10:00 29.4 19.9 57 0.0 LegendMM LegendMM   99.81 37   LegendNANA
11:00 31.4 21.0 54 0.0 LegendMM LegendMM   99.80 40   LegendNANA
12:00 32.3 19.1 46 0.0 LegendMM LegendMM   99.79 39   LegendNANA
13:00 33.9 13.6 29 0.0 LegendMM LegendMM   99.74 37   LegendNANA
14:00 34.4 11.6 25 0.0 LegendMM LegendMM   99.73 36   LegendNANA
15:00 34.9 12.4 26 0.0 LegendMM LegendMM   99.71 37   LegendNANA
16:00 34.5 11.8 25 0.0 LegendMM LegendMM   99.68 37   LegendNANA
17:00 33.6 10.8 25 0.0 LegendMM LegendMM   99.62 35   LegendNANA
18:00 32.6 10.7 26 0.0 LegendMM LegendMM   99.62 34   LegendNANA
19:00 31.3 11.7 30 0.0 LegendMM LegendMM   99.69 33   LegendNANA
20:00 30.0 10.4 30 0.0 LegendMM LegendMM   99.75 31   LegendNANA
21:00 28.9 12.7 37 0.0 LegendMM LegendMM   99.80 32   LegendNANA
22:00 28.1 12.9 39 0.0 LegendMM LegendMM   99.82 31   LegendNANA
23:00 26.2 13.6 46 0.0 LegendMM LegendMM   99.83 29   LegendNANA

Notes on Data Quality.

Legend

  • E = Estimated
  • M = Missing
  • NA = Not Available*
  • [empty] = Indicates an unobserved value
Date modified: